• In Latvia
  • List of Countries
  • For 7 days
  • Water Temperature
  • Satellite Maps
  • Weather Map
  • Weather Widgets
  • user-avatar
    Login

    Hourly Weather Escaldes-Engordany

    Today, 20 January, Friday

    Time Temperature Precipitation Wind Pressure Humidity
    00:00 -7°C° 0 mm 1 mps 638 mmHg 83%
    01:00 -7°C° 0 mm 1 mps 638 mmHg 84%
    02:00 -9°C° 0 mm 2 mps 638 mmHg 85%
    03:00 -9°C° 0 mm 2 mps 637 mmHg 86%
    04:00 -9°C° 0.1 mm 2 mps 637 mmHg 86%
    05:00 -8°C° 0.1 mm 2 mps 637 mmHg 87%
    06:00 -8°C° 0 mm 2 mps 638 mmHg 85%
    07:00 -6°C° 0.1 mm 2 mps 638 mmHg 83%
    08:00 -4°C° 0.1 mm 2 mps 639 mmHg 80%
    09:00 -3°C° 0.1 mm 2 mps 640 mmHg 78%
    10:00 -2°C° 0.1 mm 2 mps 640 mmHg 77%
    11:00 -1°C° 0.1 mm 3 mps 640 mmHg 75%
    12:00 +1°C° 0.1 mm 3 mps 641 mmHg 73%
    13:00 +1°C° 0.2 mm 3 mps 641 mmHg 75%
    14:00 0°C° 0.2 mm 3 mps 640 mmHg 77%
    15:00 +1°C° 0.2 mm 2 mps 640 mmHg 79%
    16:00 -1°C° 0.2 mm 2 mps 639 mmHg 84%
    17:00 -3°C° 0.2 mm 2 mps 639 mmHg 88%
    18:00 -5°C° 0.2 mm 2 mps 638 mmHg 93%
    19:00 -5°C° 0.3 mm 2 mps 638 mmHg 93%
    20:00 -5°C° 0.3 mm 2 mps 638 mmHg 93%
    21:00 -5°C° 0.3 mm 2 mps 639 mmHg 93%
    22:00 -5°C° 0.3 mm 2 mps 638 mmHg 93%
    23:00 -5°C° 0.3 mm 2 mps 638 mmHg 92%

    Tomorrow, 21 January, Saturday

    Time Temperature Precipitation Wind Pressure Humidity
    00:00 -6°C° 0.3 mm 2 mps 638 mmHg 92%
    01:00 -5°C° 0.3 mm 2 mps 638 mmHg 91%
    02:00 -5°C° 0.3 mm 2 mps 638 mmHg 91%
    03:00 -5°C° 0.3 mm 2 mps 638 mmHg 90%
    04:00 -5°C° 0.2 mm 2 mps 638 mmHg 90%
    05:00 -5°C° 0.2 mm 2 mps 638 mmHg 90%
    06:00 -5°C° 0.2 mm 2 mps 638 mmHg 90%
    07:00 -4°C° 0 mm 2 mps 639 mmHg 87%
    08:00 -3°C° 0 mm 2 mps 639 mmHg 85%
    09:00 -2°C° 0 mm 2 mps 640 mmHg 82%
    10:00 -1°C° 0 mm 2 mps 640 mmHg 79%
    11:00 +1°C° 0 mm 2 mps 640 mmHg 75%
    12:00 +2°C° 0 mm 2 mps 640 mmHg 72%
    13:00 +2°C° 0 mm 2 mps 640 mmHg 73%
    14:00 +2°C° 0 mm 2 mps 640 mmHg 74%
    15:00 +2°C° 0 mm 2 mps 639 mmHg 75%
    16:00 -1°C° 0 mm 2 mps 639 mmHg 80%
    17:00 -3°C° 0 mm 2 mps 638 mmHg 85%
    18:00 -5°C° 0 mm 2 mps 637 mmHg 90%
    19:00 -5°C° 0 mm 2 mps 637 mmHg 87%
    20:00 -6°C° 0 mm 2 mps 637 mmHg 85%
    21:00 -6°C° 0 mm 2 mps 637 mmHg 82%
    22:00 -6°C° 0 mm 2 mps 637 mmHg 79%
    23:00 -6°C° 0 mm 2 mps 637 mmHg 76%

    Day after tomorrow, 22 January, Sunday

    Time Temperature Precipitation Wind Pressure Humidity
    00:00 -6°C° 0 mm 2 mps 637 mmHg 73%
    01:00 -6°C° 0 mm 2 mps 637 mmHg 72%
    02:00 -6°C° 0 mm 2 mps 637 mmHg 72%
    03:00 -6°C° 0 mm 2 mps 636 mmHg 71%
    04:00 -6°C° 0 mm 2 mps 636 mmHg 71%
    05:00 -5°C° 0 mm 2 mps 636 mmHg 70%
    06:00 -5°C° 0 mm 2 mps 636 mmHg 70%
    07:00 -4°C° 0.3 mm 2 mps 637 mmHg 71%
    08:00 -4°C° 0.3 mm 2 mps 637 mmHg 73%
    09:00 -3°C° 0.3 mm 2 mps 638 mmHg 74%
    10:00 -2°C° 0.4 mm 2 mps 638 mmHg 74%
    11:00 -1°C° 0.4 mm 2 mps 638 mmHg 73%
    12:00 +1°C° 0.4 mm 2 mps 638 mmHg 73%
    13:00 +1°C° 0.3 mm 2 mps 638 mmHg 73%
    14:00 +1°C° 0.3 mm 2 mps 638 mmHg 74%
    15:00 +1°C° 0.3 mm 2 mps 638 mmHg 75%
    16:00 -2°C° 0.2 mm 2 mps 637 mmHg 79%
    17:00 -3°C° 0.2 mm 2 mps 637 mmHg 84%
    18:00 -2°C° 0.2 mm 1 mps 637 mmHg 89%
    19:00 -5°C° 0.1 mm 2 mps 637 mmHg 89%
    20:00 -5°C° 0.1 mm 2 mps 637 mmHg 88%
    21:00 -5°C° 0.1 mm 2 mps 637 mmHg 88%
    22:00 -5°C° 0.1 mm 2 mps 637 mmHg 87%
    23:00 -5°C° 0.1 mm 2 mps 637 mmHg 86%

    23 January, Monday

    Time Temperature Precipitation Wind Pressure Humidity
    00:00 -5°C° 0.1 mm 2 mps 637 mmHg 85%
    01:00 -5°C° 0.2 mm 2 mps 637 mmHg 85%
    02:00 -5°C° 0.2 mm 2 mps 636 mmHg 85%
    03:00 -5°C° 0.2 mm 2 mps 636 mmHg 84%
    04:00 -5°C° 0.3 mm 2 mps 636 mmHg 84%
    05:00 -5°C° 0.3 mm 2 mps 637 mmHg 83%
    06:00 -5°C° 0.3 mm 2 mps 637 mmHg 83%
    07:00 -4°C° 0.1 mm 2 mps 637 mmHg 81%
    08:00 -3°C° 0.1 mm 2 mps 637 mmHg 79%
    09:00 -3°C° 0.1 mm 2 mps 638 mmHg 78%
    10:00 -2°C° 0.1 mm 2 mps 638 mmHg 76%
    11:00 -1°C° 0.1 mm 2 mps 639 mmHg 74%
    12:00 +1°C° 0.1 mm 2 mps 639 mmHg 72%
    13:00 +1°C° 0.1 mm 2 mps 639 mmHg 73%
    14:00 +1°C° 0.1 mm 2 mps 638 mmHg 74%
    15:00 +1°C° 0.1 mm 2 mps 638 mmHg 76%
    16:00 -2°C° 0.1 mm 2 mps 638 mmHg 80%
    17:00 -3°C° 0.1 mm 2 mps 637 mmHg 84%
    18:00 -5°C° 0.1 mm 2 mps 637 mmHg 89%
    19:00 -5°C° 0 mm 2 mps 637 mmHg 87%
    20:00 -5°C° 0 mm 2 mps 637 mmHg 85%
    21:00 -6°C° 0 mm 2 mps 637 mmHg 83%
    22:00 -6°C° 0 mm 2 mps 637 mmHg 83%
    23:00 -7°C° 0 mm 3 mps 637 mmHg 82%

    24 January, Tuesday

    Time Temperature Precipitation Wind Pressure Humidity
    00:00 -7°C° 0 mm 3 mps 637 mmHg 82%
    01:00 -8°C° 0 mm 3 mps 636 mmHg 80%
    02:00 -8°C° 0 mm 3 mps 636 mmHg 78%
    03:00 -8°C° 0 mm 3 mps 636 mmHg 76%
    04:00 -8°C° 0 mm 3 mps 636 mmHg 74%
    05:00 -8°C° 0 mm 3 mps 636 mmHg 71%
    06:00 -9°C° 0 mm 3 mps 636 mmHg 69%
    07:00 -7°C° 0 mm 3 mps 637 mmHg 66%
    08:00 -6°C° 0 mm 3 mps 637 mmHg 64%
    09:00 -4°C° 0 mm 2 mps 638 mmHg 62%
    10:00 -4°C° 0 mm 3 mps 639 mmHg 61%
    11:00 -1°C° 0 mm 3 mps 639 mmHg 59%
    12:00 +1°C° 0 mm 3 mps 640 mmHg 58%
    13:00 0°C° 0 mm 3 mps 639 mmHg 60%
    14:00 +1°C° 0 mm 2 mps 639 mmHg 61%
    15:00 +1°C° 0 mm 2 mps 639 mmHg 63%
    16:00 -3°C° 0 mm 2 mps 638 mmHg 68%
    17:00 -5°C° 0 mm 2 mps 637 mmHg 73%
    18:00 -8°C° 0 mm 2 mps 637 mmHg 78%
    19:00 -8°C° 0 mm 2 mps 637 mmHg 74%
    20:00 -8°C° 0 mm 2 mps 637 mmHg 71%
    21:00 -8°C° 0 mm 2 mps 638 mmHg 67%
    22:00 -8°C° 0 mm 2 mps 638 mmHg 66%
    23:00 -8°C° 0 mm 2 mps 637 mmHg 64%

    25 January, Wednesday

    Time Temperature Precipitation Wind Pressure Humidity
    00:00 -9°C° 0 mm 2 mps 637 mmHg 62%
    01:00 -9°C° 0 mm 2 mps 637 mmHg 61%
    02:00 -9°C° 0 mm 2 mps 637 mmHg 60%
    03:00 -9°C° 0 mm 1 mps 637 mmHg 60%
    04:00 -9°C° 0 mm 1 mps 637 mmHg 60%
    05:00 -9°C° 0 mm 1 mps 637 mmHg 60%
    06:00 -9°C° 0 mm 1 mps 637 mmHg 61%
    07:00 -7°C° 0 mm 1 mps 638 mmHg 57%
    08:00 -3°C° 0 mm 1 mps 639 mmHg 54%
    09:00 0°C° 0 mm 1 mps 640 mmHg 51%
    10:00 +1°C° 0 mm 1 mps 641 mmHg 50%
    11:00 +3°C° 0 mm 1 mps 641 mmHg 50%
    12:00 +3°C° 0 mm 0 mps 642 mmHg 49%
    13:00 +4°C° 0 mm 1 mps 641 mmHg 53%
    14:00 +4°C° 0 mm 1 mps 641 mmHg 56%
    15:00 +4°C° 0 mm 1 mps 641 mmHg 59%
    16:00 0°C° 0 mm 1 mps 640 mmHg 67%
    17:00 -4°C° 0 mm 1 mps 638 mmHg 75%
    18:00 -9°C° 0 mm 0 mps 637 mmHg 82%
    19:00 -8°C° 0 mm 1 mps 637 mmHg 78%
    20:00 -8°C° 0 mm 1 mps 638 mmHg 74%
    21:00 -8°C° 0 mm 1 mps 638 mmHg 69%
    22:00 -7°C° 0 mm 1 mps 638 mmHg 68%
    23:00 -7°C° 0 mm 1 mps 638 mmHg 66%
    Show more